When you browse on this site, cookies collect data to enhance your experience and personalize the content and advertising you see.
Visit our Privacy Policy to learn more. By continuing to use the site, you agree to this use of cookies and data.
  • în România
  • Lista ţărilor
  • Pe 7 zile
  • Temperatura apei
  • Meteo pe hartă
  • Widget-uri
  • user-avatar
    Intrare

    Meteo pe oră la Teheran

    Astăzi, 22 Februarie, Sâmbătă

    Timp Temperatura Precipitaţii Vânt Presiune Umiditate
    00:00 +9°C° 0 mm 2 m/s 664 mmHg 46%
    01:00 +9°C° 0 mm 2 m/s 664 mmHg 46%
    02:00 +8°C° 0 mm 2 m/s 664 mmHg 46%
    03:00 +8°C° 0 mm 2 m/s 664 mmHg 46%
    04:00 +9°C° 0 mm 1 m/s 664 mmHg 48%
    05:00 +9°C° 0 mm 1 m/s 664 mmHg 49%
    06:00 +8°C° 0 mm 1 m/s 664 mmHg 50%
    07:00 +10°C° 0 mm 1 m/s 665 mmHg 50%
    08:00 +11°C° 0 mm 1 m/s 665 mmHg 49%
    09:00 +12°C° 0 mm 1 m/s 666 mmHg 49%
    10:00 +13°C° 0 mm 1 m/s 666 mmHg 48%
    11:00 +13°C° 0 mm 1 m/s 666 mmHg 48%
    12:00 +14°C° 0 mm 1 m/s 666 mmHg 47%
    13:00 +14°C° 0 mm 1 m/s 666 mmHg 46%
    14:00 +15°C° 0 mm 1 m/s 666 mmHg 45%
    15:00 +15°C° 0 mm 1 m/s 665 mmHg 44%
    16:00 +15°C° 0 mm 1 m/s 665 mmHg 46%
    17:00 +14°C° 0 mm 1 m/s 665 mmHg 48%
    18:00 +13°C° 0 mm 1 m/s 665 mmHg 50%
    19:00 +13°C° 0 mm 1 m/s 666 mmHg 51%
    20:00 +12°C° 0 mm 1 m/s 666 mmHg 52%
    21:00 +12°C° 0 mm 1 m/s 666 mmHg 53%
    22:00 +12°C° 0 mm 1 m/s 665 mmHg 53%
    23:00 +11°C° 0 mm 1 m/s 665 mmHg 53%

    Mâine, 23 Februarie, Duminică

    Timp Temperatura Precipitaţii Vânt Presiune Umiditate
    00:00 +11°C° 0 mm 1 m/s 665 mmHg 53%
    01:00 +10°C° 0 mm 1 m/s 665 mmHg 53%
    02:00 +9°C° 0 mm 2 m/s 665 mmHg 52%
    03:00 +9°C° 0 mm 2 m/s 665 mmHg 52%
    04:00 +9°C° 0 mm 2 m/s 665 mmHg 52%
    05:00 +8°C° 0 mm 2 m/s 665 mmHg 51%
    06:00 +8°C° 0 mm 2 m/s 665 mmHg 50%
    07:00 +9°C° 0 mm 2 m/s 666 mmHg 48%
    08:00 +12°C° 0 mm 2 m/s 666 mmHg 45%
    09:00 +13°C° 0 mm 2 m/s 667 mmHg 42%
    10:00 +13°C° 0 mm 3 m/s 667 mmHg 40%
    11:00 +13°C° 0 mm 4 m/s 667 mmHg 37%
    12:00 +14°C° 0 mm 5 m/s 667 mmHg 35%
    13:00 +14°C° 0 mm 5 m/s 666 mmHg 35%
    14:00 +15°C° 0 mm 5 m/s 666 mmHg 34%
    15:00 +15°C° 0 mm 6 m/s 666 mmHg 33%
    16:00 +14°C° 0 mm 5 m/s 666 mmHg 35%
    17:00 +13°C° 0 mm 4 m/s 666 mmHg 37%
    18:00 +13°C° 0 mm 3 m/s 666 mmHg 39%
    19:00 +12°C° 0 mm 3 m/s 665 mmHg 40%
    20:00 +12°C° 0 mm 3 m/s 665 mmHg 41%
    21:00 +12°C° 0 mm 2 m/s 665 mmHg 42%
    22:00 +12°C° 0 mm 2 m/s 665 mmHg 43%
    23:00 +12°C° 0 mm 2 m/s 665 mmHg 44%

    Poimâine, 24 Februarie, Luni

    Timp Temperatura Precipitaţii Vânt Presiune Umiditate
    00:00 +12°C° 0 mm 2 m/s 665 mmHg 45%
    01:00 +10°C° 0 mm 2 m/s 664 mmHg 46%
    02:00 +10°C° 0 mm 2 m/s 664 mmHg 47%
    03:00 +11°C° 0 mm 1 m/s 664 mmHg 48%
    04:00 +11°C° 0 mm 1 m/s 664 mmHg 47%
    05:00 +9°C° 0 mm 2 m/s 664 mmHg 47%
    06:00 +9°C° 0 mm 2 m/s 664 mmHg 46%
    07:00 +12°C° 0 mm 1 m/s 664 mmHg 43%
    08:00 +13°C° 0 mm 1 m/s 665 mmHg 40%
    09:00 +13°C° 0 mm 0 m/s 665 mmHg 36%
    10:00 +15°C° 0 mm 1 m/s 665 mmHg 36%
    11:00 +16°C° 0 mm 2 m/s 664 mmHg 36%
    12:00 +16°C° 0 mm 2 m/s 664 mmHg 37%
    13:00 +17°C° 0 mm 2 m/s 664 mmHg 37%
    14:00 +17°C° 0 mm 2 m/s 663 mmHg 38%
    15:00 +17°C° 0 mm 2 m/s 663 mmHg 39%
    16:00 +17°C° 0 mm 2 m/s 663 mmHg 41%
    17:00 +16°C° 0 mm 2 m/s 663 mmHg 43%
    18:00 +16°C° 0 mm 2 m/s 663 mmHg 46%
    19:00 +14°C° 0 mm 3 m/s 663 mmHg 47%
    20:00 +14°C° 0 mm 3 m/s 662 mmHg 48%
    21:00 +13°C° 0 mm 3 m/s 662 mmHg 49%
    22:00 +13°C° 0 mm 3 m/s 662 mmHg 49%
    23:00 +14°C° 0 mm 2 m/s 661 mmHg 49%

    25 Februarie, Marţi

    Timp Temperatura Precipitaţii Vânt Presiune Umiditate
    00:00 +14°C° 0 mm 2 m/s 661 mmHg 48%
    01:00 +14°C° 0 mm 1 m/s 660 mmHg 48%
    02:00 +14°C° 0 mm 1 m/s 660 mmHg 48%
    03:00 +13°C° 0 mm 1 m/s 659 mmHg 48%
    04:00 +13°C° 0 mm 1 m/s 659 mmHg 49%
    05:00 +13°C° 0 mm 1 m/s 659 mmHg 49%
    06:00 +13°C° 0 mm 1 m/s 659 mmHg 50%
    07:00 +12°C° 0.5 mm 2 m/s 659 mmHg 59%
    08:00 +12°C° 0.5 mm 2 m/s 659 mmHg 69%
    09:00 +10°C° 0.5 mm 3 m/s 659 mmHg 79%
    10:00 +10°C° 3 mm 3 m/s 659 mmHg 80%
    11:00 +9°C° 3 mm 3 m/s 659 mmHg 82%
    12:00 +9°C° 3 mm 2 m/s 659 mmHg 83%
    13:00 +9°C° 1.7 mm 2 m/s 659 mmHg 84%
    14:00 +10°C° 1.7 mm 1 m/s 658 mmHg 85%
    15:00 +11°C° 1.7 mm 1 m/s 658 mmHg 86%
    16:00 +11°C° 2.2 mm 1 m/s 658 mmHg 86%
    17:00 +10°C° 2.2 mm 2 m/s 657 mmHg 85%
    18:00 +10°C° 2.2 mm 3 m/s 657 mmHg 85%
    19:00 +10°C° 0.5 mm 3 m/s 657 mmHg 84%
    20:00 +10°C° 0.5 mm 3 m/s 658 mmHg 84%
    21:00 +10°C° 0.5 mm 3 m/s 658 mmHg 83%
    22:00 +11°C° 0.9 mm 3 m/s 657 mmHg 82%
    23:00 +11°C° 0.9 mm 3 m/s 656 mmHg 81%

    26 Februarie, Miercuri

    Timp Temperatura Precipitaţii Vânt Presiune Umiditate
    00:00 +11°C° 0.9 mm 3 m/s 656 mmHg 80%
    01:00 +11°C° 0.5 mm 3 m/s 656 mmHg 81%
    02:00 +11°C° 0.5 mm 3 m/s 655 mmHg 81%
    03:00 +10°C° 0.5 mm 3 m/s 655 mmHg 82%
    04:00 +7°C° 5.6 mm 4 m/s 655 mmHg 84%
    05:00 +3°C° 5.6 mm 6 m/s 655 mmHg 86%
    06:00 0°C° 5.6 mm 8 m/s 655 mmHg 88%
    07:00 0°C° 1.9 mm 7 m/s 656 mmHg 82%
    08:00 +1°C° 1.9 mm 6 m/s 658 mmHg 76%
    09:00 +2°C° 1.9 mm 6 m/s 659 mmHg 71%
    10:00 +3°C° 0 mm 5 m/s 660 mmHg 68%
    11:00 +3°C° 0 mm 5 m/s 660 mmHg 65%
    12:00 +5°C° 0 mm 5 m/s 661 mmHg 62%
    13:00 +5°C° 0 mm 5 m/s 661 mmHg 59%
    14:00 +5°C° 0 mm 5 m/s 662 mmHg 56%
    15:00 +5°C° 0 mm 5 m/s 662 mmHg 53%
    16:00 +3°C° 0 mm 5 m/s 663 mmHg 53%
    17:00 +2°C° 0 mm 6 m/s 663 mmHg 53%
    18:00 +1°C° 0 mm 6 m/s 664 mmHg 54%
    19:00 0°C° 0 mm 5 m/s 664 mmHg 52%
    20:00 0°C° 0 mm 5 m/s 665 mmHg 50%
    21:00 0°C° 0 mm 4 m/s 665 mmHg 49%
    22:00 0°C° 0 mm 4 m/s 665 mmHg 49%
    23:00 +1°C° 0 mm 3 m/s 665 mmHg 49%

    27 Februarie, Joi

    Timp Temperatura Precipitaţii Vânt Presiune Umiditate
    00:00 +1°C° 0 mm 3 m/s 665 mmHg 49%
    01:00 +1°C° 0 mm 3 m/s 665 mmHg 49%
    02:00 +1°C° 0 mm 3 m/s 665 mmHg 48%
    03:00 +2°C° 0 mm 2 m/s 665 mmHg 48%
    04:00 +2°C° 0 mm 2 m/s 665 mmHg 48%
    05:00 +2°C° 0 mm 2 m/s 665 mmHg 48%
    06:00 +2°C° 0 mm 2 m/s 665 mmHg 47%
    07:00 +3°C° 0 mm 2 m/s 665 mmHg 46%
    08:00 +5°C° 0 mm 1 m/s 665 mmHg 46%
    09:00 +5°C° 0 mm 1 m/s 665 mmHg 45%
    10:00 +6°C° 0 mm 1 m/s 665 mmHg 44%
    11:00 +7°C° 0 mm 1 m/s 665 mmHg 44%
    12:00 +8°C° 0 mm 1 m/s 665 mmHg 44%
    13:00 +8°C° 0 mm 1 m/s 665 mmHg 43%
    14:00 +9°C° 0 mm 1 m/s 664 mmHg 41%
    15:00 +10°C° 0 mm 1 m/s 664 mmHg 40%
    16:00 +9°C° 0 mm 1 m/s 664 mmHg 40%
    17:00 +9°C° 0 mm 1 m/s 664 mmHg 41%
    18:00 +8°C° 0 mm 1 m/s 664 mmHg 41%
    19:00 +8°C° 0 mm 1 m/s 664 mmHg 40%
    20:00 +8°C° 0 mm 1 m/s 663 mmHg 39%
    21:00 +8°C° 0 mm 1 m/s 663 mmHg 38%
    22:00 +6°C° 0 mm 0 m/s 663 mmHg 38%
    23:00 +6°C° 0 mm 0 m/s 663 mmHg 38%
    Arată mai mult